TimeCST,TemperatureF,Dew PointF,Humidity,Sea Level PressureIn,VisibilityMPH,Wind Direction,Wind SpeedMPH,Gust SpeedMPH,PrecipitationIn,Events,Conditions,WindDirDegrees,DateUTC
12:15 AM,37.4,24.8,60,30.15,10.0,East,5.8,-,N/A,,Clear,100,2012-11-25 06:15:00
12:35 AM,37.4,24.8,60,30.14,10.0,ESE,8.1,-,N/A,,Clear,120,2012-11-25 06:35:00
12:55 AM,37.4,26.6,65,30.13,10.0,ESE,9.2,-,N/A,,Clear,110,2012-11-25 06:55:00
1:15 AM,35.6,26.6,70,30.12,10.0,ESE,6.9,-,N/A,,Clear,110,2012-11-25 07:15:00
1:35 AM,35.6,26.6,70,30.11,10.0,ESE,8.1,-,N/A,,Clear,120,2012-11-25 07:35:00
1:55 AM,35.6,26.6,70,30.11,10.0,SSE,5.8,-,N/A,,Clear,150,2012-11-25 07:55:00
2:15 AM,35.6,26.6,70,30.10,10.0,SSE,6.9,-,N/A,,Clear,150,2012-11-25 08:15:00
2:35 AM,35.6,26.6,70,30.10,10.0,SSE,5.8,-,N/A,,Clear,150,2012-11-25 08:35:00
2:55 AM,37.4,26.6,65,30.09,10.0,SSE,6.9,-,N/A,,Clear,150,2012-11-25 08:55:00
3:15 AM,35.6,26.6,70,30.09,10.0,SE,6.9,-,N/A,,Clear,140,2012-11-25 09:15:00
3:35 AM,33.8,26.6,75,30.08,10.0,SSE,8.1,-,N/A,,Clear,150,2012-11-25 09:35:00
3:55 AM,35.6,28.4,75,30.07,10.0,SE,6.9,-,N/A,,Clear,140,2012-11-25 09:55:00
4:15 AM,35.6,28.4,75,30.07,10.0,SSE,6.9,-,N/A,,Clear,150,2012-11-25 10:15:00
4:35 AM,35.6,28.4,75,30.07,10.0,SSE,6.9,-,N/A,,Clear,160,2012-11-25 10:35:00
4:55 AM,35.6,28.4,75,30.06,10.0,SSE,6.9,-,N/A,,Clear,150,2012-11-25 10:55:00
5:15 AM,35.6,28.4,75,30.06,10.0,SSE,8.1,-,N/A,,Clear,160,2012-11-25 11:15:00
5:35 AM,35.6,28.4,75,30.06,10.0,SSE,6.9,-,N/A,,Clear,150,2012-11-25 11:35:00
5:55 AM,35.6,28.4,75,30.06,10.0,SSE,9.2,-,N/A,,Clear,150,2012-11-25 11:55:00
6:15 AM,35.6,28.4,75,30.05,10.0,SSE,9.2,-,N/A,,Clear,160,2012-11-25 12:15:00
6:35 AM,37.4,30.2,75,30.05,10.0,SSE,8.1,-,N/A,,Clear,150,2012-11-25 12:35:00
6:55 AM,37.4,30.2,75,30.06,10.0,SSE,8.1,-,N/A,,Clear,150,2012-11-25 12:55:00
7:15 AM,37.4,30.2,75,30.06,10.0,SSE,10.4,-,N/A,,Clear,150,2012-11-25 13:15:00
7:35 AM,37.4,30.2,75,30.06,10.0,SSE,8.1,-,N/A,,Clear,150,2012-11-25 13:35:00
7:55 AM,39.2,30.2,70,30.06,10.0,SSE,8.1,-,N/A,,Clear,150,2012-11-25 13:55:00
8:15 AM,42.8,32.0,66,30.06,10.0,SSE,8.1,-,N/A,,Clear,160,2012-11-25 14:15:00
8:35 AM,44.6,32.0,61,30.06,10.0,SSE,9.2,-,N/A,,Clear,160,2012-11-25 14:35:00
8:55 AM,46.4,33.8,62,30.06,10.0,South,11.5,-,N/A,,Clear,180,2012-11-25 14:55:00
9:15 AM,48.2,33.8,58,30.07,10.0,South,13.8,18.4,N/A,,Clear,190,2012-11-25 15:15:00
9:35 AM,51.8,33.8,50,30.07,10.0,South,9.2,-,N/A,,Clear,190,2012-11-25 15:35:00
9:55 AM,55.4,33.8,44,30.07,10.0,SSW,12.7,-,N/A,,Clear,200,2012-11-25 15:55:00
10:15 AM,57.2,33.8,41,30.06,10.0,South,11.5,-,N/A,,Clear,180,2012-11-25 16:15:00
10:35 AM,60.8,33.8,36,30.05,10.0,South,12.7,18.4,N/A,,Clear,190,2012-11-25 16:35:00
10:55 AM,62.6,33.8,34,30.04,10.0,South,13.8,-,N/A,,Clear,190,2012-11-25 16:55:00
11:15 AM,64.4,33.8,32,30.03,10.0,South,17.3,20.7,N/A,,Clear,180,2012-11-25 17:15:00
11:35 AM,66.2,35.6,32,30.02,10.0,South,16.1,-,N/A,,Clear,180,2012-11-25 17:35:00
11:55 AM,66.2,37.4,35,30.00,10.0,SSW,17.3,20.7,N/A,,Clear,200,2012-11-25 17:55:00
12:15 PM,66.2,37.4,35,29.99,10.0,South,21.9,26.5,N/A,,Clear,190,2012-11-25 18:15:00
12:35 PM,68.0,37.4,33,29.97,10.0,SSW,19.6,24.2,N/A,,Clear,200,2012-11-25 18:35:00
12:55 PM,68.0,39.2,35,29.96,10.0,South,16.1,21.9,N/A,,Clear,190,2012-11-25 18:55:00
1:15 PM,69.8,39.2,33,29.95,10.0,South,17.3,24.2,N/A,,Clear,180,2012-11-25 19:15:00
1:35 PM,69.8,39.2,33,29.94,10.0,South,17.3,23.0,N/A,,Clear,190,2012-11-25 19:35:00
1:55 PM,69.8,41.0,35,29.93,10.0,South,17.3,-,N/A,,Clear,180,2012-11-25 19:55:00
2:15 PM,71.6,41.0,33,29.92,10.0,South,19.6,23.0,N/A,,Clear,180,2012-11-25 20:15:00
2:35 PM,71.6,42.8,35,29.91,10.0,South,17.3,23.0,N/A,,Clear,190,2012-11-25 20:35:00
2:55 PM,71.6,42.8,35,29.91,10.0,South,18.4,-,N/A,,Clear,180,2012-11-25 20:55:00
3:15 PM,71.6,42.8,35,29.90,10.0,South,17.3,21.9,N/A,,Clear,180,2012-11-25 21:15:00
3:35 PM,71.6,42.8,35,29.89,10.0,South,16.1,-,N/A,,Clear,180,2012-11-25 21:35:00
3:55 PM,71.6,44.6,38,29.89,10.0,South,16.1,23.0,N/A,,Clear,180,2012-11-25 21:55:00
4:15 PM,69.8,44.6,40,29.89,10.0,South,15.0,-,N/A,,Clear,180,2012-11-25 22:15:00
4:35 PM,69.8,44.6,40,29.90,10.0,South,13.8,19.6,N/A,,Clear,180,2012-11-25 22:35:00
4:55 PM,68.0,44.6,43,29.90,10.0,South,11.5,-,N/A,,Clear,170,2012-11-25 22:55:00
5:15 PM,66.2,46.4,49,29.89,10.0,South,12.7,19.6,N/A,,Clear,180,2012-11-25 23:15:00
5:35 PM,66.2,46.4,49,29.90,10.0,South,11.5,-,N/A,,Clear,180,2012-11-25 23:35:00
5:55 PM,64.4,46.4,52,29.90,10.0,South,12.7,-,N/A,,Clear,180,2012-11-25 23:55:00
6:15 PM,62.6,46.4,55,29.90,10.0,SSE,8.1,-,N/A,,Clear,160,2012-11-26 00:15:00
6:35 PM,62.6,46.4,55,29.91,10.0,SSE,11.5,-,N/A,,Clear,160,2012-11-26 00:35:00
6:55 PM,62.6,46.4,55,29.91,10.0,SSE,11.5,-,N/A,,Clear,160,2012-11-26 00:55:00
7:15 PM,62.6,46.4,55,29.91,10.0,South,12.7,-,N/A,,Clear,170,2012-11-26 01:15:00
7:35 PM,62.6,46.4,55,29.91,10.0,SSE,11.5,-,N/A,,Clear,160,2012-11-26 01:35:00
7:55 PM,59.0,44.6,59,29.91,10.0,SE,9.2,-,N/A,,Clear,140,2012-11-26 01:55:00
8:15 PM,57.2,46.4,67,29.91,10.0,SE,10.4,-,N/A,,Clear,140,2012-11-26 02:15:00
8:35 PM,57.2,44.6,63,29.91,10.0,SE,11.5,-,N/A,,Clear,140,2012-11-26 02:35:00
8:55 PM,57.2,44.6,63,29.91,10.0,SE,9.2,-,N/A,,Clear,140,2012-11-26 02:55:00
9:15 PM,55.4,44.6,67,29.92,10.0,ESE,9.2,-,N/A,,Clear,120,2012-11-26 03:15:00
9:35 PM,53.6,44.6,72,29.92,10.0,SE,8.1,-,N/A,,Clear,130,2012-11-26 03:35:00
9:55 PM,51.8,44.6,76,29.92,10.0,SE,9.2,-,N/A,,Clear,130,2012-11-26 03:55:00
10:15 PM,51.8,44.6,76,29.92,10.0,ESE,8.1,-,N/A,,Clear,120,2012-11-26 04:15:00
10:35 PM,51.8,44.6,76,29.92,10.0,ESE,10.4,-,N/A,,Clear,120,2012-11-26 04:35:00
10:55 PM,51.8,44.6,76,29.92,10.0,SE,9.2,-,N/A,,Clear,130,2012-11-26 04:55:00
11:15 PM,51.8,44.6,76,29.93,10.0,ESE,9.2,-,N/A,,Clear,120,2012-11-26 05:15:00
11:35 PM,51.8,44.6,76,29.92,10.0,ESE,10.4,-,N/A,,Clear,120,2012-11-26 05:35:00
11:55 PM,51.8,44.6,76,29.92,10.0,SE,9.2,-,N/A,,Clear,130,2012-11-26 05:55:00